| time (UTC) | temp F | wind direction | speed knots | gust knots | rain 1hr in | rain 24hr in | rain mn in | humidity % | barometer mb |
| 20260903071824 | 59 | 173 | 5.2 | 6.1 | 0.00 | 0.00 | 0.00 | 80 | 1007.1 |
| 20260903071320 | 59 | 201 | 7.8 | 9.6 | 0.00 | 0.00 | 0.00 | 79 | 1006.8 |
| 20260903070814 | 59 | 194 | 8.7 | 9.6 | 0.00 | 0.00 | 0.00 | 80 | 1007.0 |
| 20260903070310 | 59 | 197 | 9.6 | 13.9 | 0.00 | 0.00 | 0.00 | 80 | 1007.1 |
| 20260903065805 | 59 | 231 | 6.1 | 8.7 | 0.00 | 0.14 | 0.14 | 80 | 1006.9 |
| 20260903065306 | 58 | 160 | 7.8 | 8.7 | 0.00 | 0.14 | 0.14 | 83 | 1007.2 |
| 20260903064803 | 58 | 182 | 6.1 | 7.0 | 0.00 | 0.14 | 0.14 | 84 | 1007.2 |
| 20260903064259 | 58 | 172 | 3.5 | 4.3 | 0.00 | 0.14 | 0.14 | 84 | 1007.0 |
| 20260903063755 | 58 | 200 | 3.5 | 5.2 | 0.00 | 0.14 | 0.14 | 85 | 1007.0 |
| 20260903063249 | 58 | 199 | 4.3 | 5.2 | 0.00 | 0.14 | 0.14 | 84 | 1007.1 |
| 20260903062746 | 59 | 159 | 4.3 | 5.2 | 0.00 | 0.14 | 0.14 | 82 | 1007.1 |
| 20260903062244 | 59 | 199 | 3.5 | 4.3 | 0.00 | 0.14 | 0.14 | 81 | 1007.1 |
| 20260903061741 | 59 | 198 | 3.5 | 5.2 | 0.00 | 0.14 | 0.14 | 82 | 1007.2 |
| 20260903061233 | 59 | 201 | 6.1 | 8.7 | 0.00 | 0.14 | 0.14 | 83 | 1007.2 |
| 20260903060730 | 59 | 195 | 7.0 | 8.7 | 0.00 | 0.14 | 0.14 | 84 | 1007.1 |
| 20260903060229 | 58 | 175 | 7.0 | 7.8 | 0.00 | 0.14 | 0.14 | 85 | 1007.2 |
| 20260903055727 | 58 | 203 | 4.3 | 5.2 | 0.00 | 0.14 | 0.14 | 87 | 1007.0 |
| 20260903055226 | 58 | 199 | 6.1 | 7.0 | 0.00 | 0.14 | 0.14 | 88 | 1006.9 |
| 20260903054721 | 58 | 169 | 6.1 | 6.1 | 0.00 | 0.14 | 0.14 | 88 | 1007.1 |
| 20260903054216 | 59 | 141 | 5.2 | 7.0 | 0.00 | 0.14 | 0.14 | 87 | 1006.9 |
| 20260903053713 | 59 | 177 | 4.3 | 5.2 | 0.00 | 0.14 | 0.14 | 86 | 1006.9 |
| 20260903053207 | 59 | 203 | 4.3 | 4.3 | 0.00 | 0.14 | 0.14 | 83 | 1007.2 |
| 20260903052703 | 59 | 180 | 7.8 | 11.3 | 0.00 | 0.14 | 0.14 | 83 | 1007.0 |
| 20260903052158 | 59 | 198 | 3.5 | 4.3 | 0.00 | 0.14 | 0.14 | 81 | 1006.8 |
| 20260903051653 | 59 | 219 | 4.3 | 5.2 | 0.00 | 0.14 | 0.14 | 80 | 1007.1 |
| 20260903051149 | 59 | 178 | 9.6 | 11.3 | 0.00 | 0.14 | 0.14 | 81 | 1006.8 |
| 20260903050644 | 59 | 194 | 8.7 | 11.3 | 0.00 | 0.14 | 0.14 | 80 | 1006.9 |
| 20260903050138 | 59 | 192 | 5.2 | 7.8 | 0.00 | 0.14 | 0.14 | 79 | 1006.9 |
| 20260903045637 | 59 | 184 | 7.0 | 7.8 | 0.00 | 0.14 | 0.14 | 80 | 1006.8 |
| 20260903045134 | 59 | 199 | 8.7 | 9.6 | 0.00 | 0.14 | 0.14 | 80 | 1006.9 |
| 20260903044630 | 59 | 195 | 8.7 | 11.3 | 0.00 | 0.14 | 0.14 | 81 | 1006.9 |
| 20260903044126 | 59 | 160 | 7.8 | 9.6 | 0.00 | 0.14 | 0.14 | 81 | 1006.9 |
| 20260903043622 | 59 | 210 | 6.1 | 7.8 | 0.00 | 0.14 | 0.14 | 81 | 1006.9 |
| 20260903043121 | 59 | 212 | 7.8 | 11.3 | 0.00 | 0.14 | 0.14 | 81 | 1006.8 |
| 20260903042620 | 59 | 186 | 4.3 | 7.0 | 0.00 | 0.14 | 0.14 | 81 | 1006.8 |
| 20260903042116 | 59 | 237 | 3.5 | 6.1 | 0.00 | 0.14 | 0.14 | 82 | 1006.8 |
| 20260903041612 | 60 | 214 | 7.0 | 8.7 | 0.00 | 0.14 | 0.14 | 82 | 1006.7 |
| 20260903041108 | 60 | 177 | 4.3 | 5.2 | 0.00 | 0.14 | 0.14 | 83 | 1006.9 |
| 20260903040607 | 60 | 204 | 6.1 | 8.7 | 0.00 | 0.14 | 0.14 | 83 | 1006.7 |
| 20260903040103 | 60 | 185 | 6.1 | 7.0 | 0.00 | 0.14 | 0.14 | 84 | 1006.6 |
| 20260903035558 | 60 | 176 | 3.5 | 4.3 | 0.00 | 0.14 | 0.14 | 84 | 1006.6 |
| 20260903035054 | 60 | 189 | 6.1 | 7.0 | 0.00 | 0.14 | 0.14 | 83 | 1006.5 |
| 20260903034549 | 60 | 191 | 6.1 | 7.0 | 0.00 | 0.14 | 0.14 | 81 | 1006.4 |
| 20260903034044 | 60 | 190 | 4.3 | 5.2 | 0.00 | 0.14 | 0.14 | 80 | 1006.6 |
| 20260903033539 | 60 | 188 | 6.1 | 7.8 | 0.00 | 0.14 | 0.14 | 80 | 1006.4 |
| 20260903033035 | 60 | 195 | 7.0 | 8.7 | 0.00 | 0.14 | 0.14 | 80 | 1006.3 |
| 20260903032529 | 59 | 192 | 6.1 | 7.8 | 0.00 | 0.14 | 0.14 | 81 | 1006.2 |
| 20260903032025 | 60 | 240 | 2.6 | 2.6 | 0.00 | 0.14 | 0.14 | 81 | 1006.3 |
| 20260903031524 | 59 | 191 | 6.1 | 7.8 | 0.00 | 0.14 | 0.14 | 81 | 1006.2 |
| 20260903031020 | 59 | 180 | 4.3 | 7.0 | 0.00 | 0.14 | 0.14 | 81 | 1006.1 |
| 20260903030515 | 59 | 199 | 7.0 | 8.7 | 0.00 | 0.14 | 0.14 | 81 | 1005.9 |
| 20260903030011 | 59 | 182 | 7.0 | 7.8 | 0.00 | 0.14 | 0.14 | 82 | 1006.0 |
| 20260903025506 | 59 | 193 | 7.0 | 8.7 | 0.00 | 0.14 | 0.14 | 83 | 1005.8 |
| 20260903025002 | 59 | 197 | 5.2 | 7.0 | 0.00 | 0.14 | 0.14 | 83 | 1005.7 |
| 20260903024501 | 59 | 205 | 8.7 | 11.3 | 0.00 | 0.14 | 0.14 | 83 | 1005.6 |
| 20260903023955 | 59 | 226 | 9.6 | 12.2 | 0.00 | 0.14 | 0.14 | 83 | 1005.4 |
| 20260903023451 | 59 | 201 | 6.1 | 7.8 | 0.00 | 0.14 | 0.14 | 83 | 1005.4 |
| 20260903022946 | 59 | 206 | 8.7 | 11.3 | 0.00 | 0.14 | 0.14 | 84 | 1005.4 |
| 20260903022445 | 59 | 216 | 7.0 | 7.8 | 0.00 | 0.14 | 0.14 | 84 | 1005.3 |
| 20260903021943 | 59 | 212 | 7.0 | 7.8 | 0.00 | 0.14 | 0.14 | 84 | 1005.3 |
| 20260903021439 | 59 | 192 | 7.8 | 12.2 | 0.00 | 0.14 | 0.14 | 84 | 1005.2 |
| 20260903020935 | 60 | 199 | 9.6 | 13.0 | 0.00 | 0.14 | 0.14 | 84 | 1005.1 |
| 20260903020430 | 60 | 196 | 12.2 | 13.9 | 0.00 | 0.14 | 0.14 | 83 | 1005.3 |
| 20260903015925 | 60 | 174 | 6.1 | 7.8 | 0.00 | 0.14 | 0.14 | 83 | 1005.1 |
| 20260903015421 | 60 | 225 | 7.0 | 8.7 | 0.00 | 0.14 | 0.14 | 83 | 1005.0 |
| 20260903014915 | 60 | 188 | 5.2 | 7.0 | 0.00 | 0.14 | 0.14 | 82 | 1005.0 |
| 20260903014415 | 60 | 203 | 8.7 | 11.3 | 0.00 | 0.14 | 0.14 | 82 | 1005.0 |
| 20260903013910 | 60 | 204 | 10.4 | 12.2 | 0.00 | 0.14 | 0.14 | 83 | 1005.1 |
| 20260903013409 | 59 | 218 | 9.6 | 12.2 | 0.00 | 0.14 | 0.14 | 84 | 1004.7 |
| 20260903012909 | 60 | 194 | 12.2 | 18.2 | 0.00 | 0.14 | 0.14 | 84 | 1004.8 |
| 20260903012409 | 59 | 219 | 11.3 | 12.2 | 0.00 | 0.14 | 0.14 | 84 | 1004.7 |
| 20260903011908 | 59 | 174 | 8.7 | 9.6 | 0.00 | 0.14 | 0.14 | 86 | 1004.7 |
| 20260903011407 | 60 | 197 | 3.5 | 6.1 | 0.00 | 0.14 | 0.14 | 88 | 1004.7 |
| 20260903010903 | 59 | 193 | 12.2 | 14.8 | 0.00 | 0.14 | 0.14 | 86 | 1004.8 |
| 20260903010358 | 61 | 202 | 4.3 | 5.2 | 0.00 | 0.14 | 0.14 | 87 | 1004.5 |
| 20260903005856 | 61 | 186 | 6.1 | 7.8 | 0.00 | 0.14 | 0.14 | 87 | 1004.3 |
| 20260903005351 | 61 | 170 | 4.3 | 6.1 | 0.00 | 0.14 | 0.14 | 87 | 1004.3 |
| 20260903004849 | 61 | 155 | 7.8 | 11.3 | 0.00 | 0.14 | 0.14 | 86 | 1004.2 |
| 20260903004344 | 61 | 197 | 9.6 | 11.3 | 0.00 | 0.14 | 0.14 | 85 | 1004.2 |
| 20260903003839 | 61 | 149 | 7.0 | 7.8 | 0.00 | 0.14 | 0.14 | 86 | 1004.2 |
| 20260903003338 | 61 | 186 | 13.0 | 17.4 | 0.00 | 0.14 | 0.14 | 85 | 1004.0 |
| 20260903002833 | 61 | 204 | 9.6 | 11.3 | 0.00 | 0.14 | 0.14 | 84 | 1004.0 |
| 20260903002328 | 61 | 182 | 12.2 | 13.9 | 0.00 | 0.14 | 0.14 | 85 | 1004.0 |
| 20260903001822 | 60 | 182 | 7.8 | 9.6 | 0.00 | 0.14 | 0.14 | 89 | 1004.1 |
| 20260903001318 | 60 | 162 | 5.2 | 6.1 | 0.00 | 0.14 | 0.14 | 90 | 1003.9 |
| 20260903000818 | 60 | 177 | 8.7 | 12.2 | 0.00 | 0.14 | 0.14 | 92 | 1004.0 |
| 20260903000313 | 59 | 110 | 8.7 | 11.3 | 0.00 | 0.14 | 0.14 | 94 | 1003.9 |
| 20260902235810 | 59 | 205 | 4.3 | 6.1 | 0.00 | 0.14 | 0.14 | 95 | 1003.8 |
| 20260902235306 | 59 | 145 | 6.1 | 7.0 | 0.00 | 0.14 | 0.14 | 95 | 1004.2 |
| 20260902234800 | 59 | 167 | 5.2 | 6.1 | 0.00 | 0.14 | 0.14 | 95 | 1003.8 |
| 20260902234259 | 59 | 111 | 5.2 | 6.1 | 0.00 | 0.14 | 0.14 | 94 | 1004.0 |
| 20260902233754 | 59 | 131 | 4.3 | 7.0 | 0.00 | 0.14 | 0.14 | 94 | 1003.9 |
| 20260902233253 | 59 | 109 | 2.6 | 2.6 | 0.00 | 0.14 | 0.14 | 94 | 1003.9 |
| 20260902232752 | 59 | 115 | 4.3 | 5.2 | 0.07 | 0.14 | 0.14 | 93 | 1004.3 |
| 20260902232247 | 59 | 120 | 2.6 | 4.3 | 0.12 | 0.14 | 0.14 | 94 | 1004.4 |
| 20260902231746 | 59 | 187 | 3.5 | 5.2 | 0.12 | 0.13 | 0.13 | 93 | 1004.4 |
| 20260902231241 | 59 | 194 | 6.1 | 6.1 | 0.12 | 0.12 | 0.12 | 92 | 1004.6 |
| 20260902230741 | 59 | 189 | 4.3 | 5.2 | 0.12 | 0.11 | 0.11 | 92 | 1004.6 |
| 20260902230240 | 59 | 197 | 5.2 | 6.1 | 0.07 | 0.10 | 0.10 | 92 | 1004.3 |
| 20260902225735 | 59 | 193 | 9.6 | 9.6 | 0.14 | 0.10 | 0.10 | 92 | 1004.3 |
| 20260902225230 | 59 | 176 | 2.6 | 4.3 | 0.12 | 0.09 | 0.09 | 92 | 1004.4 |
| 20260902224729 | 59 | 204 | 2.6 | 2.6 | 0.05 | 0.08 | 0.08 | 91 | 1004.3 |
| 20260902224224 | 59 | 171 | 3.5 | 4.3 | 0.07 | 0.07 | 0.07 | 92 | 1004.2 |
| 20260902223721 | 59 | 174 | 6.1 | 7.0 | 0.05 | 0.06 | 0.06 | 91 | 1004.4 |
| 20260902223219 | 59 | 235 | 2.6 | 2.6 | 0.05 | 0.06 | 0.06 | 91 | 1004.2 |
| 20260902222719 | 59 | 173 | 6.1 | 7.8 | 0.07 | 0.05 | 0.05 | 91 | 1004.5 |
| 20260902222213 | 59 | 210 | 4.3 | 5.2 | 0.07 | 0.05 | 0.05 | 91 | 1004.3 |
| 20260902221707 | 59 | 199 | 2.6 | 2.6 | 0.00 | 0.04 | 0.04 | 91 | 1004.4 |
| 20260902221201 | 59 | 236 | 3.5 | 5.2 | 0.00 | 0.04 | 0.04 | 90 | 1004.5 |
| 20260902220656 | 59 | 200 | 2.6 | 4.3 | 0.05 | 0.04 | 0.04 | 90 | 1004.1 |
| 20260902220151 | 59 | 239 | 1.7 | 2.6 | 0.05 | 0.04 | 0.04 | 90 | 1004.2 |
| 20260902215647 | 59 | 253 | 2.6 | 4.3 | 0.00 | 0.03 | 0.03 | 89 | 1004.0 |
| 20260902215142 | 59 | 246 | 4.3 | 7.0 | 0.07 | 0.03 | 0.03 | 89 | 1004.6 |
| 20260902214637 | 59 | 279 | 2.6 | 2.6 | 0.07 | 0.03 | 0.03 | 88 | 1004.6 |
| 20260902214136 | 60 | 230 | 5.2 | 7.8 | 0.05 | 0.02 | 0.02 | 87 | 1004.5 |
| 20260902213632 | 60 | 226 | 1.7 | 2.6 | 0.05 | 0.02 | 0.02 | 87 | 1004.6 |
| 20260902213131 | 60 | 207 | 3.5 | 4.3 | 0.00 | 0.01 | 0.01 | 86 | 1004.5 |
| 20260902212626 | 61 | 240 | 2.6 | 2.6 | 0.07 | 0.01 | 0.01 | 85 | 1004.7 |
| 20260902212122 | 61 | 182 | 4.3 | 6.1 | 0.07 | 0.01 | 0.01 | 83 | 1004.6 |
| 20260902211619 | 61 | 251 | 2.6 | 2.6 | 0.00 | 0.00 | 0.00 | 83 | 1004.6 |
| 20260902211114 | 62 | 188 | 7.8 | 8.7 | 0.00 | 0.00 | 0.00 | 81 | 1004.7 |
| 20260902210613 | 62 | 208 | 8.7 | 12.2 | 0.00 | 0.00 | 0.00 | 81 | 1004.6 |
| 20260902210108 | 63 | 231 | 3.5 | 5.2 | 0.00 | 0.00 | 0.00 | 80 | 1004.3 |
| 20260902205607 | 64 | 239 | 5.2 | 7.0 | 0.00 | 0.00 | 0.00 | 78 | 1004.4 |
| 20260902205103 | 64 | 241 | 7.0 | 9.6 | 0.00 | 0.00 | 0.00 | 76 | 1004.6 |
| 20260902204602 | 64 | 260 | 6.1 | 8.7 | 0.00 | 0.00 | 0.00 | 75 | 1004.4 |
| 20260902204057 | 65 | 240 | 7.8 | 8.7 | 0.00 | 0.00 | 0.00 | 73 | 1004.6 |
| 20260902203553 | 66 | 173 | 6.1 | 7.8 | 0.00 | 0.00 | 0.00 | 73 | 1004.3 |
| 20260902203052 | 65 | 237 | 2.6 | 4.3 | 0.00 | 0.00 | 0.00 | 73 | 1004.3 |
| 20260902202548 | 65 | 211 | 7.0 | 7.8 | 0.00 | 0.00 | 0.00 | 74 | 1004.4 |
| 20260902202044 | 65 | 205 | 6.1 | 7.0 | 0.00 | 0.00 | 0.00 | 75 | 1004.2 |
| 20260902201539 | 64 | 200 | 0.9 | 1.7 | 0.00 | 0.00 | 0.00 | 76 | 1004.4 |
| 20260902201033 | 63 | 215 | 2.6 | 4.3 | 0.00 | 0.00 | 0.00 | 77 | 1004.6 |
| 20260902200528 | 62 | 178 | 7.0 | 7.0 | 0.00 | 0.00 | 0.00 | 79 | 1004.8 |
| 20260902200025 | 62 | 210 | 7.8 | 9.6 | 0.00 | 0.00 | 0.00 | 80 | 1004.9 |
| 20260902195520 | 64 | 184 | 7.0 | 9.6 | 0.00 | 0.00 | 0.00 | 76 | 1004.8 |
| 20260902195019 | 63 | 178 | 7.8 | 7.8 | 0.00 | 0.00 | 0.00 | 75 | 1004.8 |
| 20260902194518 | 63 | 153 | 7.0 | 8.7 | 0.00 | 0.00 | 0.00 | 75 | 1004.8 |
| 20260902194014 | 63 | 189 | 13.0 | 15.6 | 0.00 | 0.00 | 0.00 | 76 | 1005.0 |
| 20260902193510 | 64 | 202 | 17.4 | 21.7 | 0.00 | 0.00 | 0.00 | 74 | 1004.7 |
| 20260902193009 | 65 | 255 | 8.7 | 12.2 | 0.00 | 0.00 | 0.00 | 72 | 1004.7 |
| 20260902192508 | 68 | 262 | 7.8 | 13.0 | 0.00 | 0.00 | 0.00 | 65 | 1004.8 |
| 20260902192007 | 68 | 204 | 13.0 | 17.4 | 0.00 | 0.00 | 0.00 | 59 | 1004.5 |
| 20260902191503 | 69 | 199 | 7.8 | 8.7 | 0.00 | 0.00 | 0.00 | 59 | 1004.6 |
| 20260902190957 | 69 | 236 | 9.6 | 11.3 | 0.00 | 0.00 | 0.00 | 59 | 1004.5 |
| 20260902190452 | 68 | 258 | 7.8 | 9.6 | 0.00 | 0.00 | 0.00 | 61 | 1004.5 |
| 20260902185948 | 69 | 207 | 8.7 | 9.6 | 0.00 | 0.00 | 0.00 | 60 | 1004.8 |
| 20260902185444 | 68 | 119 | 4.3 | 5.2 | 0.00 | 0.00 | 0.00 | 62 | 1004.6 |
| 20260902184939 | 68 | 168 | 7.0 | 8.7 | 0.00 | 0.00 | 0.00 | 63 | 1004.6 |
| 20260902184434 | 68 | 213 | 2.6 | 4.3 | 0.00 | 0.00 | 0.00 | 62 | 1004.6 |
| 20260902183930 | 68 | 168 | 7.0 | 9.6 | 0.00 | 0.00 | 0.00 | 62 | 1005.1 |
| 20260902183426 | 67 | 197 | 6.1 | 7.0 | 0.00 | 0.00 | 0.00 | 64 | 1004.6 |
| 20260902182921 | 66 | 204 | 7.0 | 8.7 | 0.00 | 0.00 | 0.00 | 64 | 1004.9 |
| 20260902182417 | 66 | 157 | 5.2 | 6.1 | 0.00 | 0.00 | 0.00 | 66 | 1005.1 |
| 20260902181913 | 66 | 163 | 4.3 | 5.2 | 0.00 | 0.00 | 0.00 | 67 | 1005.0 |
| 20260902181409 | 66 | 161 | 4.3 | 5.2 | 0.00 | 0.00 | 0.00 | 67 | 1005.0 |
| 20260902180903 | 66 | 155 | 0.0 | 0.0 | 0.00 | 0.00 | 0.00 | 68 | 1005.0 |
| 20260902180358 | 66 | 210 | 3.5 | 5.2 | 0.00 | 0.00 | 0.00 | 66 | 1005.3 |
| 20260902175854 | 66 | 193 | 1.7 | 1.7 | 0.00 | 0.00 | 0.00 | 65 | 1005.2 |
| 20260902175349 | 67 | 234 | 1.7 | 2.6 | 0.00 | 0.00 | 0.00 | 65 | 1005.4 |
| 20260902174844 | 67 | 188 | 2.6 | 5.2 | 0.00 | 0.00 | 0.00 | 64 | 1005.4 |
| 20260902174341 | 66 | 174 | 7.0 | 7.8 | 0.00 | 0.00 | 0.00 | 64 | 1005.4 |
| 20260902173831 | 66 | 207 | 4.3 | 5.2 | 0.00 | 0.00 | 0.00 | 65 | 1005.5 |
| 20260902173331 | 66 | 186 | 4.3 | 6.1 | 0.00 | 0.00 | 0.00 | 66 | 1005.2 |
| 20260902172831 | 66 | 165 | 4.3 | 5.2 | 0.00 | 0.00 | 0.00 | 66 | 1005.4 |
| 20260902172325 | 66 | 190 | 3.5 | 4.3 | 0.00 | 0.00 | 0.00 | 68 | 1005.5 |
| 20260902171820 | 65 | 144 | 4.3 | 5.2 | 0.00 | 0.00 | 0.00 | 68 | 1005.6 |
| 20260902171315 | 65 | 225 | 3.5 | 4.3 | 0.00 | 0.00 | 0.00 | 69 | 1005.6 |
| 20260902170806 | 65 | 174 | 4.3 | 5.2 | 0.00 | 0.00 | 0.00 | 69 | 1005.4 |
| 20260902170300 | 65 | 166 | 3.5 | 4.3 | 0.00 | 0.00 | 0.00 | 69 | 1005.7 |
| 20260902165756 | 65 | 147 | 4.3 | 5.2 | 0.00 | 0.00 | 0.00 | 69 | 1005.8 |
| 20260902165250 | 65 | 221 | 3.5 | 4.3 | 0.00 | 0.00 | 0.00 | 70 | 1005.9 |
| 20260902164745 | 65 | 148 | 4.3 | 5.2 | 0.00 | 0.00 | 0.00 | 71 | 1006.0 |
| 20260902164244 | 64 | 193 | 3.5 | 5.2 | 0.00 | 0.00 | 0.00 | 72 | 1005.9 |
| 20260902163739 | 64 | 208 | 3.5 | 5.2 | 0.00 | 0.00 | 0.00 | 73 | 1006.0 |
| 20260902163233 | 64 | 225 | 3.5 | 4.3 | 0.00 | 0.00 | 0.00 | 74 | 1006.1 |
| 20260902162732 | 64 | 156 | 4.3 | 6.1 | 0.00 | 0.00 | 0.00 | 73 | 1006.0 |
| 20260902162226 | 64 | 205 | 0.0 | 0.0 | 0.00 | 0.00 | 0.00 | 74 | 1006.1 |
| 20260902161722 | 64 | 192 | 4.3 | 7.0 | 0.00 | 0.00 | 0.00 | 75 | 1006.2 |
| 20260902161217 | 64 | 190 | 7.0 | 7.8 | 0.00 | 0.00 | 0.00 | 75 | 1006.2 |
| 20260902160715 | 64 | 176 | 7.0 | 7.8 | 0.00 | 0.00 | 0.00 | 74 | 1006.2 |
| 20260902160208 | 64 | 115 | 6.1 | 7.8 | 0.00 | 0.00 | 0.00 | 75 | 1006.2 |
| 20260902155706 | 64 | 139 | 3.5 | 5.2 | 0.00 | 0.00 | 0.00 | 75 | 1006.3 |
| 20260902155205 | 65 | 171 | 4.3 | 6.1 | 0.00 | 0.00 | 0.00 | 74 | 1006.5 |
| 20260902154701 | 66 | 212 | 4.3 | 5.2 | 0.00 | 0.00 | 0.00 | 73 | 1006.2 |
| 20260902154200 | 64 | 194 | 0.9 | 1.7 | 0.00 | 0.00 | 0.00 | 73 | 1006.3 |
| 20260902153655 | 64 | 149 | 3.5 | 6.1 | 0.00 | 0.00 | 0.00 | 76 | 1006.8 |
| 20260902153150 | 63 | 135 | 4.3 | 6.1 | 0.00 | 0.00 | 0.00 | 77 | 1006.7 |
| 20260902152646 | 63 | 168 | 7.0 | 9.6 | 0.00 | 0.00 | 0.00 | 76 | 1006.7 |
| 20260902152141 | 63 | 206 | 4.3 | 6.1 | 0.00 | 0.00 | 0.00 | 77 | 1006.7 |
| 20260902151636 | 63 | 187 | 2.6 | 2.6 | 0.00 | 0.00 | 0.00 | 78 | 1006.9 |
| 20260902151137 | 62 | 145 | 3.5 | 4.3 | 0.00 | 0.00 | 0.00 | 79 | 1006.9 |
| 20260902150632 | 62 | 138 | 3.5 | 4.3 | 0.00 | 0.00 | 0.00 | 80 | 1006.8 |
| 20260902150127 | 62 | 163 | 3.5 | 4.3 | 0.00 | 0.00 | 0.00 | 82 | 1007.2 |
| 20260902145622 | 61 | 209 | 4.3 | 6.1 | 0.00 | 0.00 | 0.00 | 83 | 1007.0 |
| 20260902145121 | 62 | 167 | 0.9 | 1.7 | 0.00 | 0.00 | 0.00 | 83 | 1007.0 |
| 20260902144618 | 61 | 122 | 6.1 | 7.8 | 0.00 | 0.00 | 0.00 | 83 | 1007.3 |
| 20260902144118 | 62 | 156 | 2.6 | 4.3 | 0.00 | 0.00 | 0.00 | 82 | 1007.3 |
| 20260902143613 | 61 | 133 | 4.3 | 5.2 | 0.00 | 0.00 | 0.00 | 82 | 1007.2 |
| 20260902143108 | 61 | 210 | 2.6 | 2.6 | 0.00 | 0.00 | 0.00 | 83 | 1007.4 |
| 20260902142605 | 61 | 174 | 6.1 | 6.1 | 0.00 | 0.00 | 0.00 | 83 | 1007.1 |
| 20260902142100 | 60 | 182 | 4.3 | 5.2 | 0.00 | 0.00 | 0.00 | 83 | 1007.3 |
| 20260902141600 | 60 | 193 | 2.6 | 2.6 | 0.00 | 0.00 | 0.00 | 83 | 1007.3 |
| 20260902141055 | 60 | 210 | 1.7 | 2.6 | 0.00 | 0.00 | 0.00 | 84 | 1007.3 |
| 20260902140549 | 60 | 203 | 2.6 | 2.6 | 0.00 | 0.00 | 0.00 | 84 | 1007.4 |
| 20260902140046 | 60 | 197 | 3.5 | 5.2 | 0.00 | 0.00 | 0.00 | 84 | 1007.2 |
| 20260902135544 | 60 | 218 | 0.9 | 1.7 | 0.00 | 0.00 | 0.00 | 84 | 1007.3 |
| 20260902135039 | 60 | 204 | 1.7 | 1.7 | 0.00 | 0.00 | 0.00 | 84 | 1007.3 |
| 20260902134535 | 60 | 191 | 6.1 | 6.1 | 0.00 | 0.00 | 0.00 | 84 | 1007.4 |
| 20260902134035 | 60 | 198 | 6.1 | 7.0 | 0.00 | 0.00 | 0.00 | 84 | 1007.5 |
| 20260902133529 | 60 | 224 | 3.5 | 4.3 | 0.00 | 0.00 | 0.00 | 84 | 1007.4 |
| 20260902133024 | 60 | 177 | 6.1 | 7.0 | 0.00 | 0.00 | 0.00 | 84 | 1007.5 |
| 20260902132519 | 60 | 167 | 4.3 | 5.2 | 0.00 | 0.00 | 0.00 | 84 | 1007.4 |
| 20260902132015 | 60 | 197 | 2.6 | 2.6 | 0.00 | 0.00 | 0.00 | 84 | 1007.3 |
| 20260902131511 | 61 | 201 | 6.1 | 6.1 | 0.00 | 0.00 | 0.00 | 84 | 1007.4 |
| 20260902131010 | 61 | 196 | 4.3 | 5.2 | 0.00 | 0.00 | 0.00 | 83 | 1007.4 |
| 20260902130507 | 61 | 176 | 2.6 | 2.6 | 0.00 | 0.00 | 0.00 | 83 | 1007.5 |
| 20260902130002 | 61 | 210 | 5.2 | 7.0 | 0.00 | 0.00 | 0.00 | 83 | 1007.6 |
| 20260902125457 | 61 | 173 | 3.5 | 4.3 | 0.00 | 0.00 | 0.00 | 83 | 1007.6 |
| 20260902124953 | 61 | 205 | 4.3 | 5.2 | 0.00 | 0.00 | 0.00 | 83 | 1007.5 |
| 20260902124449 | 61 | 192 | 6.1 | 7.0 | 0.00 | 0.00 | 0.00 | 83 | 1007.8 |
| 20260902123944 | 61 | 201 | 2.6 | 2.6 | 0.00 | 0.00 | 0.00 | 83 | 1007.8 |
| 20260902123440 | 61 | 177 | 4.3 | 5.2 | 0.00 | 0.00 | 0.00 | 84 | 1007.6 |
| 20260902122938 | 60 | 200 | 5.2 | 7.0 | 0.00 | 0.00 | 0.00 | 84 | 1007.8 |
| 20260902122434 | 60 | 171 | 1.7 | 1.7 | 0.00 | 0.00 | 0.00 | 85 | 1007.8 |
| 20260902121930 | 60 | 193 | 5.2 | 6.1 | 0.00 | 0.00 | 0.00 | 85 | 1007.7 |
| 20260902121425 | 60 | 219 | 3.5 | 4.3 | 0.00 | 0.00 | 0.00 | 85 | 1007.9 |
| 20260902120925 | 60 | 209 | 4.3 | 5.2 | 0.00 | 0.00 | 0.00 | 85 | 1007.8 |
| 20260902120421 | 61 | 258 | 2.6 | 2.6 | 0.00 | 0.00 | 0.00 | 85 | 1007.8 |
| 20260902115920 | 61 | 228 | 1.7 | 2.6 | 0.00 | 0.00 | 0.00 | 85 | 1008.0 |
| 20260902115417 | 61 | 197 | 6.1 | 7.0 | 0.00 | 0.00 | 0.00 | 85 | 1007.9 |
| 20260902114913 | 60 | 210 | 3.5 | 5.2 | 0.00 | 0.00 | 0.00 | 85 | 1008.0 |
| 20260902114409 | 60 | 179 | 7.0 | 7.8 | 0.00 | 0.00 | 0.00 | 85 | 1007.8 |
| 20260902113903 | 61 | 208 | 7.8 | 8.7 | 0.00 | 0.00 | 0.00 | 85 | 1008.1 |
| 20260902113359 | 61 | 177 | 3.5 | 4.3 | 0.00 | 0.00 | 0.00 | 85 | 1008.0 |
| 20260902112858 | 61 | 200 | 3.5 | 4.3 | 0.00 | 0.00 | 0.00 | 85 | 1008.1 |
| 20260902112355 | 61 | 187 | 7.0 | 7.8 | 0.00 | 0.00 | 0.00 | 85 | 1008.1 |
| 20260902111850 | 61 | 169 | 6.1 | 7.8 | 0.00 | 0.00 | 0.00 | 85 | 1008.3 |
| 20260902111347 | 61 | 236 | 0.9 | 0.9 | 0.00 | 0.00 | 0.00 | 85 | 1008.3 |
| 20260902110842 | 61 | 188 | 6.1 | 9.6 | 0.00 | 0.00 | 0.00 | 86 | 1008.3 |
| 20260902110338 | 60 | 210 | 6.1 | 6.1 | 0.00 | 0.00 | 0.00 | 86 | 1008.1 |
| 20260902105837 | 60 | 238 | 3.5 | 5.2 | 0.00 | 0.00 | 0.00 | 86 | 1008.3 |
| 20260902105332 | 60 | 185 | 4.3 | 5.2 | 0.00 | 0.00 | 0.00 | 87 | 1008.2 |
| 20260902104827 | 60 | 234 | 3.5 | 4.3 | 0.00 | 0.00 | 0.00 | 87 | 1008.4 |
| 20260902104324 | 60 | 198 | 0.9 | 1.7 | 0.00 | 0.00 | 0.00 | 87 | 1008.3 |
| 20260902103823 | 60 | 222 | 4.3 | 5.2 | 0.00 | 0.00 | 0.00 | 87 | 1008.4 |
| 20260902103318 | 60 | 189 | 3.5 | 4.3 | 0.00 | 0.00 | 0.00 | 88 | 1008.7 |
| 20260902102813 | 60 | 206 | 5.2 | 8.7 | 0.00 | 0.00 | 0.00 | 88 | 1008.5 |
| 20260902102308 | 60 | 184 | 4.3 | 5.2 | 0.00 | 0.00 | 0.00 | 88 | 1008.5 |
| 20260902101801 | 60 | 185 | 5.2 | 6.1 | 0.00 | 0.00 | 0.00 | 88 | 1008.6 |
| 20260902101301 | 60 | 174 | 6.1 | 7.0 | 0.00 | 0.00 | 0.00 | 88 | 1008.5 |
| 20260902100755 | 60 | 216 | 5.2 | 7.0 | 0.00 | 0.00 | 0.00 | 88 | 1008.8 |
| 20260902100255 | 60 | 196 | 7.0 | 7.8 | 0.00 | 0.00 | 0.00 | 88 | 1008.5 |
| 20260902095749 | 60 | 182 | 3.5 | 4.3 | 0.00 | 0.00 | 0.00 | 88 | 1008.6 |
| 20260902095244 | 60 | 172 | 8.7 | 9.6 | 0.00 | 0.00 | 0.00 | 88 | 1008.6 |
| 20260902094738 | 60 | 201 | 7.8 | 11.3 | 0.00 | 0.00 | 0.00 | 88 | 1008.7 |
| 20260902094235 | 60 | 198 | 7.8 | 9.6 | 0.00 | 0.00 | 0.00 | 88 | 1008.5 |
| 20260902093734 | 60 | 201 | 3.5 | 5.2 | 0.00 | 0.00 | 0.00 | 88 | 1008.6 |
| 20260902093229 | 60 | 222 | 3.5 | 5.2 | 0.00 | 0.00 | 0.00 | 87 | 1008.5 |
| 20260902092729 | 60 | 188 | 3.5 | 4.3 | 0.00 | 0.00 | 0.00 | 88 | 1008.8 |
| 20260902092224 | 60 | 155 | 4.3 | 5.2 | 0.00 | 0.00 | 0.00 | 87 | 1008.7 |
| 20260902091723 | 61 | 198 | 5.2 | 6.1 | 0.00 | 0.00 | 0.00 | 87 | 1008.8 |
| 20260902091220 | 61 | 171 | 2.6 | 2.6 | 0.00 | 0.00 | 0.00 | 87 | 1008.8 |
| 20260902090716 | 61 | 180 | 7.0 | 7.8 | 0.00 | 0.00 | 0.00 | 87 | 1008.9 |
| 20260902090215 | 61 | 191 | 5.2 | 7.0 | 0.00 | 0.00 | 0.00 | 87 | 1009.1 |
| 20260902085709 | 61 | 193 | 3.5 | 5.2 | 0.00 | 0.00 | 0.00 | 87 | 1008.8 |
| 20260902085204 | 61 | 191 | 1.7 | 4.3 | 0.00 | 0.00 | 0.00 | 86 | 1008.9 |
| 20260902084655 | 61 | 186 | 4.3 | 6.1 | 0.00 | 0.00 | 0.00 | 86 | 1009.4 |
| 20260902084151 | 62 | 191 | 6.1 | 8.7 | 0.00 | 0.00 | 0.00 | 86 | 1009.4 |
| 20260902083646 | 62 | 208 | 1.7 | 1.7 | 0.00 | 0.00 | 0.00 | 86 | 1009.2 |
| 20260902083145 | 62 | 185 | 5.2 | 6.1 | 0.00 | 0.00 | 0.00 | 86 | 1009.4 |
| 20260902082641 | 62 | 199 | 6.1 | 7.0 | 0.00 | 0.00 | 0.00 | 86 | 1009.2 |
| 20260902082137 | 62 | 199 | 7.0 | 7.8 | 0.00 | 0.00 | 0.00 | 86 | 1009.3 |
| 20260902081633 | 62 | 204 | 7.0 | 7.8 | 0.00 | 0.00 | 0.00 | 86 | 1009.1 |
| 20260902081128 | 62 | 208 | 4.3 | 5.2 | 0.00 | 0.00 | 0.00 | 87 | 1009.4 |
| 20260902080623 | 62 | 202 | 2.6 | 4.3 | 0.00 | 0.00 | 0.00 | 86 | 1009.5 |
| 20260902080120 | 62 | 178 | 5.2 | 6.1 | 0.00 | 0.00 | 0.00 | 86 | 1009.5 |
| 20260902075619 | 62 | 194 | 4.3 | 6.1 | 0.00 | 0.00 | 0.00 | 86 | 1009.4 |
| 20260902075116 | 62 | 194 | 3.5 | 4.3 | 0.00 | 0.00 | 0.00 | 85 | 1009.4 |
| 20260902074611 | 62 | 207 | 4.3 | 5.2 | 0.00 | 0.00 | 0.00 | 83 | 1009.5 |
| 20260902074106 | 62 | 195 | 8.7 | 8.7 | 0.00 | 0.00 | 0.00 | 82 | 1009.5 |
| 20260902073601 | 62 | 175 | 6.1 | 7.8 | 0.00 | 0.00 | 0.00 | 81 | 1009.5 |
| 20260902073058 | 62 | 223 | 2.6 | 2.6 | 0.00 | 0.00 | 0.00 | 81 | 1009.6 |
| 20260902072553 | 62 | 160 | 6.1 | 7.8 | 0.00 | 0.00 | 0.00 | 80 | 1009.4 |